TRA6259 EHRD-LDSP

Flight info

Callsign TRA6259
Flight time 1h 52m
Altitude 37000
Route LUNIX Z739 MISGO DCT DOJOH DCT DODEN DCT NEGIX DCT DINKU M867 XERUM DCT BAVAX DCT RADIZ DCT ALIVO DCT NUPSO
Aircraft A21N/M-SDE3FGHIRWY/LB1

Departure

Time 2026-05-04 16:53
Airport Rotterdam The Hague Airport (EHRD)

Arrival

Time 2026-05-04 18:45
Airport Split Saint Jerome Airport (LDSP)
Time Latitude Longitude Altitude Speed Heading
2026-05-04 16:12 51.95114 4.43483 1 ft 0 kts 327°
2026-05-04 16:48 51.95149 4.43462 1 ft 2 kts 21°
2026-05-04 16:48 51.95162 4.43487 1 ft 3 kts 50°
2026-05-04 16:49 51.95205 4.43475 1 ft 4 kts 326°
2026-05-04 16:49 51.95239 4.43390 1 ft 5 kts 240°
2026-05-04 16:50 51.95175 4.43231 1 ft 13 kts 237°
2026-05-04 16:50 51.95113 4.43036 1 ft 8 kts 245°
2026-05-04 16:51 51.95172 4.42885 1 ft 10 kts 326°
2026-05-04 16:51 51.95222 4.42860 2 ft 6 kts 34°
2026-05-04 16:51 51.95237 4.42895 3 ft 0 kts 57°
2026-05-04 16:52 51.95319 4.43099 3 ft 52 kts 57°
2026-05-04 16:52 51.95647 4.43923 0 ft 119 kts 57°
2026-05-04 16:53 51.96797 4.46823 721 ft 161 kts 54°
2026-05-04 16:53 51.98632 4.51932 1744 ft 204 kts 64°
2026-05-04 16:54 51.99254 4.54122 1900 ft 225 kts 63°
2026-05-04 16:55 52.04632 4.60807 4061 ft 265 kts 31°
2026-05-04 16:55 52.07404 4.64885 5516 ft 274 kts 45°
2026-05-04 16:56 52.10082 4.69405 6954 ft 281 kts 46°
2026-05-04 16:56 52.14206 4.76393 9051 ft 290 kts 46°
2026-05-04 16:57 52.15432 4.79009 9737 ft 293 kts 61°
2026-05-04 16:57 52.16853 4.85401 10486 ft 319 kts 73°
2026-05-04 16:58 52.18953 4.96601 11439 ft 359 kts 73°
2026-05-04 16:58 52.19695 5.00522 11984 ft 365 kts 73°
2026-05-04 16:59 52.21201 5.08496 13205 ft 372 kts 72°
2026-05-04 17:00 52.23080 5.25217 15386 ft 385 kts 100°
2026-05-04 17:00 52.19555 5.36902 17002 ft 391 kts 127°
2026-05-04 17:01 52.16399 5.44129 18062 ft 396 kts 127°
2026-05-04 17:01 52.13196 5.51475 19075 ft 399 kts 126°
2026-05-04 17:02 52.09961 5.58878 20052 ft 404 kts 127°
2026-05-04 17:02 52.06679 5.66344 21006 ft 408 kts 127°
2026-05-04 17:03 52.04910 5.69883 21460 ft 410 kts 133°
2026-05-04 17:03 52.03011 5.73434 21922 ft 412 kts 133°
2026-05-04 17:03 51.99245 5.80435 22828 ft 417 kts 133°
2026-05-04 17:04 51.95419 5.87556 23687 ft 421 kts 134°
2026-05-04 17:04 51.91568 5.94760 24478 ft 425 kts 134°
2026-05-04 17:05 51.87677 6.02008 25237 ft 428 kts 134°
2026-05-04 17:05 51.83742 6.09295 25980 ft 431 kts 135°
2026-05-04 17:06 51.79767 6.16592 26688 ft 435 kts 135°
2026-05-04 17:06 51.77757 6.20260 27034 ft 437 kts 135°
2026-05-04 17:07 51.73708 6.27642 27695 ft 441 kts 135°
2026-05-04 17:07 51.72336 6.30145 27923 ft 442 kts 135°
2026-05-04 17:07 51.69625 6.35081 28330 ft 445 kts 136°
2026-05-04 17:07 51.67573 6.38810 28655 ft 447 kts 136°
2026-05-04 17:08 51.65503 6.42561 28981 ft 448 kts 136°
2026-05-04 17:08 51.61338 6.50103 29619 ft 451 kts 136°
2026-05-04 17:08 51.59261 6.53866 30064 ft 450 kts 136°
2026-05-04 17:09 51.57183 6.57626 30455 ft 449 kts 136°
2026-05-04 17:09 51.55112 6.61362 30789 ft 448 kts 136°
2026-05-04 17:09 51.53039 6.65093 31138 ft 447 kts 136°
2026-05-04 17:10 51.48894 6.72528 31843 ft 446 kts 137°
2026-05-04 17:10 51.42675 6.83647 32749 ft 447 kts 137°
2026-05-04 17:11 51.40599 6.87341 33093 ft 446 kts 138°
2026-05-04 17:11 51.38469 6.90946 33452 ft 444 kts 140°
2026-05-04 17:11 51.34065 6.97807 34143 ft 440 kts 142°
2026-05-04 17:12 51.31841 7.01148 34446 ft 439 kts 142°
2026-05-04 17:12 51.27398 7.07845 34956 ft 439 kts 141°
2026-05-04 17:13 51.20790 7.18040 35598 ft 442 kts 141°
2026-05-04 17:14 51.14137 7.28296 36215 ft 444 kts 141°
2026-05-04 17:14 51.11913 7.31704 36421 ft 444 kts 141°
2026-05-04 17:14 51.07451 7.38509 36905 ft 444 kts 141°
2026-05-04 17:15 51.05222 7.41900 36989 ft 444 kts 141°
2026-05-04 17:16 50.97151 7.54178 37000 ft 442 kts 141°
2026-05-04 17:17 50.88222 7.67673 37012 ft 444 kts 141°
2026-05-04 17:18 50.79258 7.81137 37027 ft 444 kts 141°
2026-05-04 17:19 50.70251 7.94508 37034 ft 444 kts 141°
2026-05-04 17:20 50.61234 8.07839 36999 ft 445 kts 141°
2026-05-04 17:20 50.55249 8.19136 37004 ft 449 kts 133°
2026-05-04 17:21 50.47445 8.34443 37008 ft 449 kts 133°
2026-05-04 17:22 50.43563 8.42021 36987 ft 449 kts 133°
2026-05-04 17:23 50.35647 8.57126 36990 ft 447 kts 136°
2026-05-04 17:24 50.29252 8.67707 36990 ft 445 kts 139°
2026-05-04 17:25 50.20720 8.81728 36999 ft 445 kts 137°
2026-05-04 17:26 50.12258 8.95811 36999 ft 445 kts 138°
2026-05-04 17:27 50.01647 9.13288 37003 ft 444 kts 138°
2026-05-04 17:28 49.93149 9.27211 36989 ft 444 kts 138°
2026-05-04 17:29 49.80347 9.48026 36980 ft 445 kts 138°
2026-05-04 17:31 49.69651 9.65281 36989 ft 445 kts 138°
2026-05-04 17:32 49.58944 9.82475 36982 ft 444 kts 138°
2026-05-04 17:33 49.50351 9.96163 36951 ft 444 kts 138°
2026-05-04 17:34 49.41729 10.09828 36965 ft 446 kts 138°
2026-05-04 17:35 49.30810 10.26593 36997 ft 444 kts 141°
2026-05-04 17:36 49.26206 10.32990 36975 ft 444 kts 142°
2026-05-04 17:36 49.21636 10.39327 36995 ft 444 kts 141°
2026-05-04 17:37 49.17084 10.45719 37004 ft 444 kts 141°
2026-05-04 17:37 49.12576 10.52084 37008 ft 444 kts 141°
2026-05-04 17:38 49.08032 10.58465 37006 ft 444 kts 141°
2026-05-04 17:38 49.03477 10.64822 36989 ft 444 kts 141°
2026-05-04 17:39 48.96639 10.74342 36992 ft 444 kts 141°
2026-05-04 17:39 48.92075 10.80669 36980 ft 444 kts 141°
2026-05-04 17:40 48.87513 10.86989 36974 ft 444 kts 141°
2026-05-04 17:40 48.82939 10.93310 36964 ft 444 kts 141°
2026-05-04 17:41 48.78365 10.99618 36948 ft 444 kts 141°
2026-05-04 17:41 48.73786 11.05909 36941 ft 444 kts 141°
2026-05-04 17:42 48.69204 11.12195 36950 ft 445 kts 141°
2026-05-04 17:42 48.64614 11.18460 36952 ft 444 kts 141°
2026-05-04 17:43 48.60023 11.24717 36951 ft 444 kts 141°
2026-05-04 17:43 48.55428 11.30960 36937 ft 444 kts 141°
2026-05-04 17:44 48.50832 11.37194 36928 ft 444 kts 141°
2026-05-04 17:44 48.46230 11.43419 36933 ft 445 kts 141°
2026-05-04 17:45 48.41623 11.49637 36939 ft 445 kts 141°
2026-05-04 17:45 48.37010 11.55858 36945 ft 445 kts 141°
2026-05-04 17:46 48.32382 11.62067 36953 ft 446 kts 141°
2026-05-04 17:46 48.27751 11.68265 36948 ft 446 kts 141°
2026-05-04 17:47 48.23109 11.74445 36952 ft 446 kts 142°
2026-05-04 17:47 48.18307 11.80300 36953 ft 444 kts 145°
2026-05-04 17:48 48.13389 11.85922 36951 ft 444 kts 146°
2026-05-04 17:48 48.08489 11.91554 36948 ft 445 kts 145°
2026-05-04 17:49 48.03619 11.97250 36946 ft 445 kts 145°
2026-05-04 17:49 47.98752 12.02974 36932 ft 445 kts 145°
2026-05-04 17:50 47.93877 12.08665 36928 ft 445 kts 145°
2026-05-04 17:50 47.88994 12.14344 36930 ft 445 kts 145°
2026-05-04 17:51 47.84107 12.20012 36928 ft 446 kts 145°
2026-05-04 17:51 47.79210 12.25678 36929 ft 446 kts 145°
2026-05-04 17:52 47.74314 12.31330 36930 ft 445 kts 145°
2026-05-04 17:52 47.69404 12.36981 36938 ft 445 kts 145°
2026-05-04 17:53 47.64524 12.42568 36937 ft 445 kts 145°
2026-05-04 17:53 47.59629 12.48173 36940 ft 444 kts 145°
2026-05-04 17:54 47.54734 12.53767 36938 ft 445 kts 145°
2026-05-04 17:54 47.49843 12.59352 36939 ft 444 kts 145°
2026-05-04 17:55 47.44937 12.64937 36939 ft 445 kts 145°
2026-05-04 17:55 47.40016 12.70512 36948 ft 446 kts 145°
2026-05-04 17:56 47.35088 12.76086 36964 ft 447 kts 145°
2026-05-04 17:56 47.30158 12.81661 36983 ft 447 kts 145°
2026-05-04 17:57 47.25216 12.87218 36994 ft 447 kts 145°
2026-05-04 17:57 47.20299 12.92742 37004 ft 448 kts 145°
2026-05-04 17:58 47.15319 12.98327 37018 ft 447 kts 145°
2026-05-04 17:58 47.10400 13.03833 37035 ft 447 kts 145°
2026-05-04 17:59 47.05450 13.09354 37034 ft 447 kts 145°
2026-05-04 18:00 46.98003 13.17627 37044 ft 448 kts 145°
2026-05-04 18:00 46.93029 13.23148 37056 ft 449 kts 145°
2026-05-04 18:01 46.88883 13.27732 37060 ft 449 kts 145°
2026-05-04 18:01 46.83895 13.33225 37060 ft 449 kts 145°
2026-05-04 18:02 46.76410 13.41467 37057 ft 450 kts 145°
2026-05-04 18:02 46.71408 13.46958 37056 ft 450 kts 145°
2026-05-04 18:03 46.66399 13.52444 37056 ft 451 kts 145°
2026-05-04 18:03 46.61383 13.57923 37052 ft 451 kts 145°
2026-05-04 18:04 46.56357 13.63398 37060 ft 452 kts 146°
2026-05-04 18:05 46.48803 13.71602 37055 ft 453 kts 146°
2026-05-04 18:05 46.43749 13.77070 37060 ft 453 kts 146°
2026-05-04 18:06 46.36162 13.85275 37063 ft 454 kts 146°
2026-05-04 18:06 46.31095 13.90742 37066 ft 455 kts 145°
2026-05-04 18:07 46.26016 13.96197 37083 ft 455 kts 146°
2026-05-04 18:07 46.20930 14.01640 37088 ft 455 kts 146°
2026-05-04 18:08 46.15844 14.07077 37079 ft 455 kts 145°
2026-05-04 18:08 46.10756 14.12506 37079 ft 455 kts 146°
2026-05-04 18:09 46.00546 14.23346 37081 ft 457 kts 146°
2026-05-04 18:10 45.95429 14.28770 37083 ft 457 kts 146°
2026-05-04 18:10 45.90311 14.34191 37091 ft 457 kts 146°
2026-05-04 18:11 45.85189 14.39584 37094 ft 457 kts 146°
2026-05-04 18:11 45.80053 14.44977 37106 ft 457 kts 146°
2026-05-04 18:12 45.74929 14.50347 37096 ft 457 kts 146°
2026-05-04 18:12 45.69825 14.55696 37102 ft 457 kts 146°
2026-05-04 18:13 45.64645 14.61109 37094 ft 458 kts 146°
2026-05-04 18:14 45.56963 14.69115 37078 ft 458 kts 146°
2026-05-04 18:14 45.51733 14.74418 37085 ft 457 kts 152°
2026-05-04 18:15 45.40748 14.83448 37094 ft 457 kts 152°
2026-05-04 18:16 45.35230 14.87957 37087 ft 458 kts 152°
2026-05-04 18:16 45.29704 14.92463 37089 ft 458 kts 152°
2026-05-04 18:17 45.21414 14.99223 37086 ft 458 kts 152°
2026-05-04 18:18 45.13127 15.05968 37088 ft 459 kts 152°
2026-05-04 18:18 45.07585 15.10461 36802 ft 460 kts 152°
2026-05-04 18:18 45.04777 15.12725 35763 ft 469 kts 153°
2026-05-04 18:19 44.99056 15.17325 34153 ft 473 kts 153°
2026-05-04 18:19 44.96204 15.19626 33397 ft 472 kts 153°
2026-05-04 18:19 44.93355 15.21925 32670 ft 471 kts 153°
2026-05-04 18:20 44.90510 15.24216 31947 ft 470 kts 152°
2026-05-04 18:20 44.87669 15.26502 31215 ft 470 kts 152°
2026-05-04 18:20 44.84842 15.28773 30644 ft 466 kts 152°
2026-05-04 18:20 44.82037 15.31020 30050 ft 463 kts 152°
2026-05-04 18:21 44.79239 15.33258 29450 ft 459 kts 152°
2026-05-04 18:21 44.76476 15.35466 28880 ft 454 kts 152°
2026-05-04 18:21 44.73744 15.37649 28325 ft 449 kts 152°
2026-05-04 18:21 44.71042 15.39807 27779 ft 445 kts 152°
2026-05-04 18:22 44.68364 15.41944 27247 ft 440 kts 152°
2026-05-04 18:22 44.65714 15.44058 26710 ft 436 kts 152°
2026-05-04 18:22 44.63121 15.46122 26205 ft 432 kts 152°
2026-05-04 18:22 44.60517 15.48189 25694 ft 428 kts 152°
2026-05-04 18:23 44.57936 15.50233 25202 ft 424 kts 152°
2026-05-04 18:23 44.55377 15.52257 24714 ft 421 kts 152°
2026-05-04 18:23 44.52842 15.54262 24234 ft 416 kts 151°
2026-05-04 18:23 44.50328 15.56249 23775 ft 413 kts 151°
2026-05-04 18:24 44.47841 15.58214 23250 ft 408 kts 151°
2026-05-04 18:24 44.45387 15.60149 22800 ft 402 kts 151°
2026-05-04 18:24 44.42968 15.62055 22350 ft 396 kts 152°
2026-05-04 18:24 44.40585 15.63931 21909 ft 391 kts 152°
2026-05-04 18:25 44.38230 15.65784 21456 ft 386 kts 152°
2026-05-04 18:25 44.35899 15.67613 21008 ft 382 kts 152°
2026-05-04 18:25 44.33597 15.69419 20561 ft 378 kts 152°
2026-05-04 18:25 44.31311 15.71216 20114 ft 375 kts 151°
2026-05-04 18:26 44.29056 15.72988 19661 ft 372 kts 152°
2026-05-04 18:26 44.26804 15.74756 19209 ft 369 kts 151°
2026-05-04 18:26 44.24572 15.76505 18764 ft 367 kts 152°
2026-05-04 18:26 44.22356 15.78243 18300 ft 364 kts 152°
2026-05-04 18:27 44.20157 15.79965 17835 ft 361 kts 152°
2026-05-04 18:27 44.17976 15.81671 17401 ft 357 kts 152°
2026-05-04 18:27 44.15821 15.83350 16973 ft 353 kts 152°
2026-05-04 18:27 44.13688 15.85012 16548 ft 350 kts 152°
2026-05-04 18:28 44.11563 15.86626 16117 ft 346 kts 153°
2026-05-04 18:28 44.09437 15.88168 15713 ft 343 kts 154°
2026-05-04 18:28 44.07316 15.89671 15305 ft 340 kts 154°
2026-05-04 18:28 44.05215 15.91150 14894 ft 338 kts 154°
2026-05-04 18:29 44.03120 15.92626 14471 ft 336 kts 154°
2026-05-04 18:29 44.01045 15.94092 14101 ft 333 kts 154°
2026-05-04 18:29 43.99019 15.95529 13977 ft 321 kts 154°
2026-05-04 18:29 43.97064 15.96925 13831 ft 310 kts 154°
2026-05-04 18:30 43.93308 15.99605 13199 ft 303 kts 154°
2026-05-04 18:30 43.91447 16.00930 12647 ft 299 kts 154°
2026-05-04 18:30 43.89603 16.02241 12065 ft 297 kts 154°
2026-05-04 18:31 43.87705 16.03342 11495 ft 294 kts 166°
2026-05-04 18:31 43.85701 16.03764 10949 ft 291 kts 180°
2026-05-04 18:31 43.83701 16.03487 10560 ft 287 kts 191°
2026-05-04 18:31 43.81746 16.02961 10235 ft 286 kts 191°
2026-05-04 18:32 43.79799 16.02451 9916 ft 284 kts 191°
2026-05-04 18:32 43.77862 16.01948 9590 ft 282 kts 190°
2026-05-04 18:32 43.75938 16.01451 9288 ft 281 kts 190°
2026-05-04 18:32 43.74020 16.00954 8986 ft 280 kts 191°
2026-05-04 18:33 43.72109 16.00454 8686 ft 279 kts 191°
2026-05-04 18:33 43.70212 15.99958 8386 ft 278 kts 191°
2026-05-04 18:33 43.68317 15.99465 8090 ft 276 kts 191°
2026-05-04 18:33 43.66437 15.98977 7906 ft 274 kts 191°
2026-05-04 18:34 43.64553 15.98489 7844 ft 276 kts 191°
2026-05-04 18:34 43.62663 15.97997 7719 ft 276 kts 191°
2026-05-04 18:34 43.60781 15.97507 7595 ft 275 kts 191°
2026-05-04 18:34 43.58902 15.97019 7471 ft 275 kts 191°
2026-05-04 18:35 43.57026 15.96531 7349 ft 274 kts 191°
2026-05-04 18:35 43.55152 15.96045 7227 ft 274 kts 191°
2026-05-04 18:35 43.53281 15.95560 7106 ft 273 kts 191°
2026-05-04 18:35 43.51414 15.95075 6976 ft 273 kts 191°
2026-05-04 18:36 43.49591 15.94387 6864 ft 272 kts 203°
2026-05-04 18:36 43.47962 15.93078 6742 ft 272 kts 218°
2026-05-04 18:36 43.46595 15.91280 6621 ft 272 kts 225°
2026-05-04 18:36 43.45272 15.89409 6503 ft 273 kts 225°
2026-05-04 18:37 43.43950 15.87545 6373 ft 271 kts 225°
2026-05-04 18:37 43.42633 15.85690 6243 ft 270 kts 225°
2026-05-04 18:37 43.41182 15.84082 6112 ft 268 kts 205°
2026-05-04 18:37 43.39386 15.83497 5982 ft 268 kts 179°
2026-05-04 18:38 43.37591 15.84112 5865 ft 269 kts 152°
2026-05-04 18:38 43.36133 15.85724 5742 ft 271 kts 136°
2026-05-04 18:38 43.34788 15.87537 5616 ft 271 kts 136°
2026-05-04 18:38 43.33483 15.89403 5484 ft 269 kts 127°
2026-05-04 18:39 43.32780 15.91700 5353 ft 259 kts 98°
2026-05-04 18:39 43.32917 15.94123 5025 ft 256 kts 71°
2026-05-04 18:39 43.33845 15.96181 4607 ft 253 kts 45°
2026-05-04 18:39 43.35052 15.97839 4510 ft 237 kts 45°
2026-05-04 18:40 43.36180 15.99406 4453 ft 227 kts 45°
2026-05-04 18:40 43.37277 16.00941 4376 ft 223 kts 44°
2026-05-04 18:40 43.38385 16.02427 4284 ft 222 kts 43°
2026-05-04 18:40 43.39434 16.03992 4180 ft 222 kts 49°
2026-05-04 18:41 43.40395 16.05648 4074 ft 222 kts 51°
2026-05-04 18:41 43.41326 16.07307 3825 ft 221 kts 52°
2026-05-04 18:41 43.42262 16.08977 3550 ft 220 kts 51°
2026-05-04 18:41 43.43205 16.10660 3261 ft 218 kts 51°
2026-05-04 18:42 43.44101 16.12259 3000 ft 208 kts 52°
2026-05-04 18:42 43.44965 16.13803 2730 ft 200 kts 52°
2026-05-04 18:42 43.45806 16.15304 2453 ft 191 kts 52°
2026-05-04 18:42 43.46601 16.16725 2203 ft 184 kts 53°
2026-05-04 18:43 43.47358 16.18079 1970 ft 178 kts 53°
2026-05-04 18:43 43.48108 16.19421 1729 ft 172 kts 53°
2026-05-04 18:43 43.48820 16.20694 1516 ft 164 kts 53°
2026-05-04 18:43 43.49492 16.21898 1292 ft 157 kts 52°
2026-05-04 18:44 43.50148 16.23074 1075 ft 153 kts 52°
2026-05-04 18:44 43.50367 16.23466 999 ft 153 kts 52°
2026-05-04 18:44 43.51435 16.25382 673 ft 151 kts 52°
2026-05-04 18:44 43.52074 16.26529 474 ft 150 kts 51°
2026-05-04 18:45 43.52711 16.27664 285 ft 150 kts 51°
2026-05-04 18:45 43.53342 16.28805 100 ft 148 kts 52°
2026-05-04 18:45 43.53890 16.29790 84 ft 96 kts 52°
2026-05-04 18:45 43.54113 16.30189 65 ft 17 kts 52°
2026-05-04 18:46 43.54176 16.30273 64 ft 8 kts 35°
2026-05-04 18:46 43.54166 16.30290 66 ft 3 kts 221°
2026-05-04 18:46 43.54145 16.30248 66 ft 7 kts 233°
2026-05-04 18:46 43.54115 16.30196 65 ft 7 kts 227°
2026-05-04 18:47 43.54082 16.30156 65 ft 6 kts 218°
2026-05-04 18:47 43.54046 16.30122 66 ft 6 kts 210°
2026-05-04 18:47 43.54004 16.30096 70 ft 7 kts 200°
2026-05-04 18:47 43.53957 16.30077 74 ft 7 kts 195°
2026-05-04 18:48 43.53913 16.30056 75 ft 7 kts 207°
2026-05-04 18:48 43.53890 16.30029 67 ft 6 kts 227°
2026-05-04 18:48 43.53859 16.29975 73 ft 9 kts 232°
2026-05-04 18:48 43.53811 16.29888 76 ft 11 kts 232°
2026-05-04 18:49 43.53768 16.29811 84 ft 9 kts 232°
2026-05-04 18:49 43.53735 16.29751 82 ft 6 kts 233°
2026-05-04 18:49 43.53720 16.29741 82 ft 2 kts 178°
2026-05-04 18:49 43.53709 16.29762 83 ft 5 kts 121°
2026-05-04 18:50 43.53696 16.29797 83 ft 2 kts 114°
2026-05-04 18:50 43.53691 16.29813 81 ft 0 kts 114°